Miscellaneous Local Product
Issued by NWS North Platte, NE

Home | Current Version | Previous Version | Text Only | Print | Product List | Glossary On
Versions: 1 2 3 4 5 6 7 8 9 10 11 12 13 14 15 16 17 18 19 20 21 22 23 24 25 26 27 28 29 30 31 32 33 34 35 36 37 38 39 40 41 42 43 44 45 46 47 48 49 50
000
AXUS43 KLBF 202310
MISLBF


WESTERN AND NORTH CENTRAL NEBRASKA HOURLY WEATHER ROUNDUP
NATIONAL WEATHER SERVICE NORTH PLATTE NE
600 PM CDT SUN JUL 20 2014

***STATIONS NOT REPORTING VARIABLES SUCH AS SKY/WEATHER OR
PRESSURE ARE PROVIDED BY THE NEBRASKA DEPARTMENT OF
ROADS...RAWS...AND APRS NETWORKS...AND ARE NOT UNDER
NATIONAL WEATHER SERVICE QUALITY CONTROL***

...OBSERVATIONS IN AND NEAR THE EASTERN PANHANDLE OF NEBRASKA...

CITY           SKY/WX    TMP DP  RH WIND       PRES   REMARKS
PINE RIDGE     SUNNY     95  59  30 NE3       29.81F HX  94
CHADRON        SUNNY    101  50  18 E5        29.77F HX  98
ALLIANCE       SUNNY    100  31   9 W13G22    29.85F HX  94
SIDNEY         MOSUNNY  101  30   8 NW13G21   29.92F HX  94
RUSHVILLE        N/A    106  41  11 E10         N/A  HX 100
CRESCENT LAKE    N/A     99  41  13 W9G16       N/A  HX  94
BIG SPRINGS      N/A    100  54  21 NE3         N/A  HX  98
$$

...OBSERVATIONS IN NORTH CENTRAL NEBRASKA...

CITY           SKY/WX    TMP DP  RH WIND       PRES   REMARKS
VALENTINE      SUNNY     94  68  42 SE7       29.77F HX  98
THEDFORD       SUNNY     95  65  36 CALM      29.80S HX  97
AINSWORTH      SUNNY     90  66  45 SE8       29.79S HX  92
O`NEILL        SUNNY     87  69  53 SE10      29.79F HX  91
BROKEN BOW     SUNNY     94  67  41 S7        29.78F HX  97
SPRINGVIEW       N/A     90  73  56 SE3G12      N/A  HX  97
SARGENT          N/A     92  76  58 CALM        N/A  HX 103
COMSTOCK         N/A     98  78  52 S9          N/A  HX 114
CHAMBERS         N/A     90  76  62 S10         N/A  HX 101
$$

...OBSERVATIONS IN SOUTHWEST NEBRASKA AND FAR NORTHEAST COLORADO...

CITY           SKY/WX    TMP DP  RH WIND       PRES   REMARKS
WRAY             N/A    106  32   7 W12G20    29.87S HX  99
HOLYOKE        FAIR     104  32   8 W8G17     29.87S HX  97
IMPERIAL       SUNNY    103  40  11 W8        29.82F HX  98
OGALLALA       SUNNY     97  48  18 NW8       29.82S HX  94
NORTH PLATTE   SUNNY     97  64  33 E3        29.78F HX  99
MCCOOK         SUNNY    100  62  28 E6        29.78F HX 101
LEXINGTON      SUNNY     98  64  32 S7        29.77F HX 100
PAXTON           N/A    102  46  14 W5          N/A  HX  98
BRADY            N/A     98  66  35 CALM        N/A  HX 102
GOTHENBURG       N/A    100  56  23 NE6         N/A  HX  99
CALLAWAY         N/A     96  78  56 SE3         N/A  HX 112
$$

...NORTH PLATTE AREA...

CITY           SKY/WX    TMP DP  RH WIND       PRES   REMARKS
AIRPORT        SUNNY     97  64  33 E3        29.78F HX  99
$$

...SOME WEATHER OBSERVATIONS FROM AROUND THE REGION...

CITY           SKY/WX    TMP DP  RH WIND       PRES   REMARKS
DENVER         CLOUDY    94  38  14 S18       30.02F
LARAMIE        SUNNY     84  34  16 W10       30.17F
CHEYENNE       MOSUNNY   91  35  13 NW16G24   30.06F
SCOTTSBLUFF    MOSUNNY  100  39  12 N6        29.87F HX  95
RAPID CITY     SUNNY     92  62  36 SE5       29.79F HX  92
PIERRE         SUNNY     99  65  32 E9        29.69S HX 102
WINNER         FAIR      98  66  34 SE12      29.73S HX 101
SIOUX FALLS    PTSUNNY   83  72  69 S15       29.79F
OMAHA          PTSUNNY   88  71  57 S22G29    29.81F HX  94
GRAND ISLAND   SUNNY     92  73  53 S15       29.78F HX 100
KANSAS CITY    SUNNY     83  69  62 S17       29.93S
WICHITA        MOSUNNY   90  73  57 S21       29.87F HX  98
HAYS           SUNNY     95  68  41 S21G26    29.82S HX  99
LIBERAL        SUNNY     99  63  30 S18       29.91S HX 100
GOODLAND       SUNNY    100  44  14 W8        29.88F HX  96
$$



USA.gov is the U.S. government's official web portal to all federal, state and local government web resources and services.